IRIDIUM 67 [+]

Last updated on Thu Jun 07 2018 00:20:06 GMT+0000 (Coordinated Universal Time)

1 25290U 98021F 18157.32051658 .00000167 00000-0 52610-4 0 9992 2 25290 86.3973 75.8956 0002183 83.0730 277.0714 14.34222575 55789
UTC large
Height (km)
Speed (km/s)
/
Latitude / Longitude
Inclination (degrees)
Orbital Period (minutes)
Azimuth
Elevation
Range (km)
Doppler Factor

Next 0 passes for location: London (51.5072 / 0.1276)

Sorry there are no passes over London.